Hobart, OK

1:13 AM CDT on April 26, 2017 (GMT -0500)
Hobart Municipal

Weather History for KHBR - April, 2013

Change the Weather History Date:

Thursday, April 11, 2013

  Actual Average Record
Temperature  
Mean Temperature 42 °F -  
Max Temperature 59 °F 68 °F 82 °F (2006)
Min Temperature 27 °F 42 °F 27 °F (2013)
Degree Days  
Heating Degree Days 23    
Moisture  
Dew Point 29 °F    
Average Humidity 64    
Maximum Humidity 89    
Minimum Humidity 37    
Precipitation  
Precipitation 0.00 in - - ()
Sea Level Pressure  
Sea Level Pressure 29.90 in    
Wind  
Wind Speed 7 mph (West)    
Max Wind Speed 15 mph    
Max Gust Speed 21 mph    
Visibility 10 miles    
Events      
Averages and records for this station are not official NWS values.
T = Trace of Precipitation, MM = Missing Value Source: NWS Daily Summary

Daily Weather History Graph

Daily Weather History Graph

Search for Another Location

Airport or City:

Trip Planner

Search our weather history database for the weather conditions in past years. The results will help you decide how hot, cold, wet, or windy it might be!

Date:

Astronomy

Apr. 11, 2013 Rise Set
Actual Time 7:09 AM CDT 8:05 PM CDT
Civil Twilight 6:43 AM CDT 8:31 PM CDT
Nautical Twilight 6:12 AM CDT 9:02 PM CDT
Astronomical Twilight 5:41 AM CDT 9:34 PM CDT
Moon 7:44 AM CDT (4/11) 9:37 PM CDT (4/11)
Length of Visible Light 13h 48m
Length of Day
12h 56m
New Moon, 2% of the Moon is Illuminated
Apr 11
New Moon
Apr 18
First Quarter
Apr 25
Full
May 2
Last Quarter
May 9
New

Hourly Weather History & Observations

Time (CDT) Temp. Windchill Dew Point Humidity Pressure Visibility Wind Dir Wind Speed Gust Speed Precip Events Conditions
12:53 AM 33.1 °F 27.7 °F 30.0 °F 89% 30.02 in 10.0 mi NNE 5.8 mph - N/A   Clear
1:53 AM 32.0 °F - 27.0 °F 82% 30.05 in 10.0 mi Calm Calm - N/A   Clear
2:53 AM 30.9 °F 24.3 °F 25.0 °F 79% 30.01 in 10.0 mi NNW 6.9 mph - N/A   Clear
3:53 AM 30.0 °F 23.2 °F 24.1 °F 79% 30.00 in 10.0 mi NNW 6.9 mph - N/A   Clear
4:53 AM 30.0 °F 24.1 °F 23.0 °F 75% 29.99 in 10.0 mi North 5.8 mph - N/A   Clear
5:53 AM 27.0 °F 18.7 °F 21.9 °F 81% 29.97 in 10.0 mi WNW 8.1 mph - N/A   Clear
6:53 AM 27.0 °F 20.5 °F 23.0 °F 85% 29.97 in 10.0 mi WNW 5.8 mph - N/A   Clear
7:53 AM 28.9 °F 21.1 °F 24.1 °F 82% 29.99 in 10.0 mi WNW 8.1 mph - N/A   Clear
8:53 AM 34.0 °F 26.6 °F 25.0 °F 70% 29.97 in 10.0 mi WNW 9.2 mph - N/A   Clear
9:53 AM 37.0 °F 31.0 °F 24.1 °F 59% 29.97 in 10.0 mi NW 8.1 mph - N/A   Clear
10:53 AM 39.9 °F 36.7 °F 23.0 °F 51% 29.95 in 10.0 mi NW 4.6 mph - N/A   Clear
11:53 AM 44.6 °F 39.7 °F 26.6 °F 49% 29.92 in 10.0 mi WNW 9.2 mph - N/A   Clear
12:53 PM 46.0 °F - 28.0 °F 50% 29.91 in 10.0 mi Calm Calm - N/A   Clear
1:53 PM 50.0 °F - 32.0 °F 50% 29.86 in 10.0 mi WSW 6.9 mph - N/A   Clear
2:53 PM 53.1 °F - 30.9 °F 43% 29.85 in 10.0 mi WSW 15.0 mph - N/A   Clear
3:53 PM 55.9 °F - 30.9 °F 39% 29.82 in 10.0 mi SW 6.9 mph 20.7 mph N/A   Clear
4:53 PM 57.9 °F - 32.0 °F 37% 29.79 in 10.0 mi WSW 12.7 mph - N/A   Clear
5:53 PM 57.9 °F - 33.1 °F 39% 29.77 in 10.0 mi SSW 13.8 mph - N/A   Clear
6:53 PM 55.9 °F - 35.1 °F 45% 29.76 in 10.0 mi SSW 12.7 mph 19.6 mph N/A   Clear
7:53 PM 52.0 °F - 37.0 °F 57% 29.77 in 10.0 mi South 11.5 mph - N/A   Clear
8:53 PM 48.0 °F - 37.9 °F 68% 29.78 in 10.0 mi South 11.5 mph - N/A   Clear
9:53 PM 48.0 °F - 37.9 °F 68% 29.80 in 10.0 mi South 15.0 mph - N/A   Clear
10:53 PM 44.1 °F 38.6 °F 37.9 °F 79% 29.83 in 10.0 mi SW 10.4 mph - N/A   Clear
11:53 PM 41.0 °F 35.8 °F 37.0 °F 86% 29.86 in 10.0 mi WSW 8.1 mph - N/A   Clear